z/d,0,0,50,50,100,100,200,200,300,300,400,400,500,500,750,750,1000,1000,2000,2000,3000,3000,4000,4000,4700,4700
2016.10.26-01:00,1.05,68.75,1.14,66.35,1.00,76.04,.97,75.91,.95,81.82,.82,75.21,.79,73.43,.53,85.35,.34,77.99,.19,40.50,.16,26.98,.22,27.27,.02,90.00
2016.10.26-02:00,1.06,69.22,1.15,68.99,.98,77.74,.98,77.09,.92,81.53,.82,73.41,.80,72.42,.50,85.59,.33,79.75,.20,45.16,.16,27.96,.22,24.34,.02,90.00
2016.10.26-03:00,1.09,71.45,1.16,72.83,.96,79.50,.98,78.12,.90,80.34,.83,71.43,.81,71.54,.47,83.79,.33,80.04,.22,50.67,.17,30.65,.22,23.47,.02,90.00
2016.10.26-04:00,1.10,74.86,1.16,77.50,.95,80.88,.99,78.49,.90,78.31,.86,69.82,.83,71.29,.45,80.79,.32,78.83,.24,54.76,.18,33.85,.24,24.82,.03,90.00
2016.10.26-05:00,1.11,78.78,1.15,82.55,.93,81.71,1.00,77.94,.92,75.77,.91,68.78,.86,71.65,.45,77.64,.33,76.75,.26,57.23,.19,37.13,.26,27.79,.03,90.00
2016.10.26-06:00,1.11,82.69,1.14,87.88,.93,82.36,1.00,76.82,.94,73.44,.95,68.42,.88,72.46,.46,75.06,.34,74.18,.27,58.20,.21,39.54,.28,30.92,.04,90.00
2016.10.26-07:00,1.13,86.76,1.13,93.26,.93,83.05,1.01,75.71,.98,72.00,1.00,68.91,.89,73.68,.47,72.96,.34,70.82,.28,58.32,.22,41.10,.29,33.57,.05,90.00
2016.10.26-08:00,1.13,90.32,1.10,97.79,.92,83.05,1.02,74.80,1.01,71.68,1.03,70.29,.90,75.41,.48,71.25,.35,66.65,.28,58.46,.22,41.69,.30,35.15,.06,90.00
2016.10.26-09:00,1.10,91.06,1.02,100.33,.89,81.42,1.02,74.16,1.02,72.33,1.06,72.55,.90,77.76,.49,70.46,.36,62.72,.27,58.97,.21,40.88,.30,35.37,.06,90.00
2016.10.26-10:00,1.07,87.80,.89,99.43,.85,77.67,1.01,73.75,1.02,73.30,1.06,75.32,.89,80.43,.50,70.85,.37,60.13,.26,59.21,.20,38.71,.29,34.86,.06,90.00
2016.10.26-11:00,1.05,82.67,.76,93.96,.82,72.77,1.00,73.95,1.00,74.37,1.05,78.42,.87,83.17,.49,72.32,.37,59.46,.23,58.29,.18,35.61,.27,34.30,.06,90.00
2016.10.26-12:00,1.05,77.55,.67,84.54,.83,68.77,.99,74.93,.99,75.40,1.03,81.42,.84,85.38,.49,73.76,.38,60.53,.21,56.28,.17,31.62,.25,33.17,.05,90.00
2016.10.26-13:00,1.07,75.10,.64,75.80,.85,67.61,.98,76.49,.97,76.23,.99,83.82,.81,86.42,.48,73.94,.39,62.91,.19,55.03,.15,26.63,.23,30.08,.05,90.00
2016.10.26-14:00,1.09,75.62,.65,71.10,.89,69.03,.97,78.07,.97,76.65,.94,85.19,.76,86.01,.47,72.82,.39,66.48,.19,56.84,.15,23.07,.21,25.82,.04,90.00
2016.10.26-15:00,1.09,76.99,.69,68.56,.94,71.06,.98,79.01,.97,76.64,.90,85.35,.71,84.35,.45,71.11,.39,70.63,.19,60.16,.15,22.94,.22,22.77,.03,90.00
2016.10.26-16:00,1.05,76.98,.73,66.65,.99,72.65,.99,79.17,.99,76.37,.86,84.35,.68,81.95,.45,69.69,.38,74.79,.20,63.00,.17,25.87,.23,22.64,.03,90.00
2016.10.26-17:00,.99,75.87,.78,65.62,1.03,74.13,1.01,78.92,1.01,76.16,.84,82.36,.68,79.14,.46,68.67,.38,77.80,.21,64.15,.18,30.37,.25,25.17,.04,90.00
2016.10.26-18:00,.96,74.17,.84,65.89,1.07,76.21,1.02,78.87,1.04,76.46,.83,80.13,.69,76.52,.49,67.71,.38,78.48,.21,62.96,.20,34.35,.27,28.50,.04,90.00
2016.10.26-19:00,.98,73.34,.91,67.53,1.10,79.01,1.03,79.16,1.06,77.26,.84,78.21,.71,74.31,.53,66.73,.39,76.90,.22,60.47,.21,37.53,.29,31.82,.05,90.00
2016.10.26-20:00,1.05,74.39,.98,70.17,1.12,82.17,1.03,79.69,1.06,78.38,.85,76.92,.74,72.78,.56,66.25,.39,73.92,.22,57.33,.21,39.42,.30,34.43,.05,90.00
2016.10.26-21:00,1.12,76.86,1.04,72.77,1.12,85.02,1.02,80.21,1.04,79.59,.86,76.33,.75,72.16,.59,67.14,.39,71.18,.22,53.44,.21,39.37,.29,35.77,.05,90.00
2016.10.26-22:00,1.16,79.03,1.07,74.53,1.08,86.78,.98,80.22,1.01,80.38,.85,75.99,.77,72.04,.61,69.58,.40,70.02,.22,49.06,.19,37.56,.28,36.00,.05,90.00
2016.10.26-23:00,1.19,80.32,1.09,75.43,1.02,87.29,.95,79.94,.97,80.75,.85,75.92,.77,72.29,.61,73.22,.39,70.59,.21,44.58,.18,34.17,.27,35.15,.04,90.00
2016.10.26-24:00,1.24,84.14,1.12,75.55,.97,86.65,.93,79.74,.93,80.88,.84,76.18,.77,72.97,.60,77.61,.38,72.49,.21,41.36,.16,29.91,.25,33.20,.04,90.00
2016.10.27-01:00,1.18,86.57,1.13,75.66,.93,85.30,.90,79.71,.90,80.64,.83,76.25,.77,73.46,.58,81.71,.36,75.04,.21,41.47,.16,26.00,.23,29.95,.03,90.00
2016.10.27-02:00,1.11,87.55,1.12,76.91,.89,84.14,.89,79.86,.88,79.99,.82,75.62,.77,73.25,.55,84.47,.34,77.35,.21,45.11,.15,23.70,.22,26.05,.02,90.00
2016.10.27-03:00,1.05,90.15,1.09,79.41,.86,83.37,.88,79.87,.87,78.90,.81,74.27,.78,72.60,.52,85.63,.33,78.63,.22,50.32,.16,24.75,.23,24.12,.02,90.00
2016.10.27-04:00,.97,96.78,1.05,82.82,.83,82.68,.87,79.23,.88,77.37,.83,72.54,.80,72.13,.50,85.66,.33,78.78,.23,54.62,.17,28.48,.24,25.34,.03,90.00
2016.10.27-05:00,.89,104.03,1.00,86.86,.82,81.89,.88,77.69,.90,75.45,.86,70.72,.83,72.06,.48,84.81,.32,77.84,.25,57.31,.18,33.25,.26,28.84,.04,90.00
2016.10.27-06:00,.84,108.78,.97,90.99,.83,81.16,.91,75.72,.94,73.55,.91,69.26,.85,72.34,.46,82.89,.32,75.54,.27,59.03,.20,37.70,.28,32.88,.05,90.00
2016.10.27-07:00,.81,115.09,.96,94.55,.86,80.51,.95,74.05,.99,72.17,.96,68.58,.88,72.87,.45,79.36,.33,71.25,.28,60.19,.22,41.08,.29,36.09,.06,90.00
2016.10.27-08:00,.78,119.75,.94,96.71,.89,79.56,1.00,73.11,1.03,71.75,1.01,69.04,.89,73.80,.44,74.73,.34,65.87,.29,61.21,.23,43.02,.30,37.70,.06,90.00
2016.10.27-09:00,.70,118.69,.89,96.38,.89,77.68,1.03,72.90,1.06,72.56,1.04,70.79,.90,75.53,.45,71.07,.36,61.80,.29,62.16,.22,43.00,.30,37.28,.06,90.00
2016.10.27-10:00,.58,113.35,.81,92.35,.88,74.29,1.03,72.96,1.07,74.12,1.05,73.27,.90,77.84,.47,69.75,.39,60.24,.27,62.78,.21,41.20,.29,35.49,.06,90.00
2016.10.27-11:00,.48,104.69,.75,84.67,.88,70.02,1.03,73.19,1.05,75.86,1.04,75.88,.88,80.23,.48,70.36,.40,60.64,.25,62.36,.19,38.09,.28,33.29,.06,90.00
2016.10.27-12:00,.42,91.55,.73,75.66,.90,66.35,1.01,73.55,1.02,77.12,1.01,78.04,.84,82.01,.48,71.58,.41,62.14,.22,60.71,.17,34.46,.26,31.36,.05,90.00
2016.10.27-13:00,.43,76.46,.76,69.19,.94,64.77,1.00,74.15,.99,77.62,.98,79.45,.80,82.76,.47,72.38,.41,64.37,.19,58.32,.15,30.58,.24,29.40,.05,90.00
2016.10.27-14:00,.50,67.08,.81,66.73,.99,65.60,1.00,75.11,.96,77.50,.94,80.16,.76,82.49,.47,72.56,.41,67.46,.17,56.41,.14,26.34,.23,26.65,.04,90.00
2016.10.27-15:00,.58,62.36,.85,66.72,1.03,67.91,1.00,76.29,.95,77.04,.91,80.25,.73,81.47,.47,72.29,.41,71.26,.16,56.45,.14,23.47,.22,23.83,.03,90.00
2016.10.27-16:00,.63,58.88,.87,67.09,1.06,70.65,1.00,77.27,.95,76.39,.89,79.79,.71,79.87,.47,71.49,.41,74.80,.17,57.96,.14,24.65,.23,23.27,.03,90.00
2016.10.27-17:00,.70,54.95,.88,67.04,1.08,73.39,1.01,77.86,.98,75.92,.90,79.02,.72,78.07,.48,70.20,.40,77.30,.19,59.29,.16,29.50,.25,25.76,.04,90.00
2016.10.27-18:00,.76,53.63,.91,67.43,1.11,76.29,1.04,78.26,1.03,76.06,.92,78.24,.74,76.29,.49,68.46,.38,78.37,.21,59.88,.18,34.67,.27,29.38,.04,90.00
2016.10.27-19:00,.79,55.27,.95,69.09,1.14,79.31,1.07,78.66,1.08,76.89,.95,77.59,.77,74.56,.51,66.45,.37,77.72,.23,59.94,.20,38.13,.29,32.51,.05,90.00
2016.10.27-20:00,.83,59.22,1.00,71.87,1.15,82.18,1.09,79.18,1.11,78.31,.97,77.27,.80,73.17,.54,64.96,.37,75.58,.25,59.23,.21,39.67,.31,34.82,.05,90.00
2016.10.27-21:00,.91,64.15,1.06,75.22,1.15,84.56,1.09,79.87,1.11,80.08,.97,77.42,.82,72.51,.57,64.98,.37,72.96,.25,57.37,.21,39.38,.31,36.19,.05,90.00
2016.10.27-22:00,.98,68.33,1.10,78.22,1.12,86.02,1.07,80.60,1.09,81.74,.96,77.82,.83,72.52,.60,66.76,.39,71.12,.25,54.59,.21,37.52,.31,36.67,.05,90.00
2016.10.27-23:00,1.03,71.15,1.13,80.28,1.08,86.35,1.05,81.24,1.04,82.88,.93,78.19,.82,72.88,.62,69.97,.39,70.68,.24,51.39,.20,34.29,.29,36.14,.05,90.00
2016.10.27-24:00,1.07,72.76,1.13,81.29,1.04,85.72,1.02,81.66,.98,83.16,.90,78.35,.80,73.33,.61,74.08,.39,71.43,.22,48.74,.18,30.39,.27,34.75,.04,90.00
2016.10.28-01:00,1.09,73.21,1.12,81.71,1.02,84.77,.99,81.63,.93,82.29,.87,78.07,.78,73.55,.59,78.47,.37,72.76,.21,47.59,.17,26.66,.24,32.54,.03,90.00
2016.10.28-02:00,1.08,74.64,1.11,82.37,1.02,84.32,.97,81.08,.89,80.31,.84,77.22,.77,73.31,.56,82.50,.35,74.21,.20,48.69,.16,24.21,.22,29.73,.03,90.00
2016.10.28-03:00,1.08,76.82,1.08,83.73,1.01,84.75,.96,80.21,.87,77.76,.83,76.08,.76,72.80,.52,85.58,.33,75.33,.19,51.70,.15,24.30,.21,27.23,.03,90.00
2016.10.28-04:00,1.05,79.74,1.04,85.80,1.00,85.80,.96,79.23,.88,75.19,.83,74.93,.77,72.35,.50,87.22,.32,75.66,.20,55.43,.15,27.69,.21,26.54,.03,90.00
2016.10.28-05:00,.99,83.22,.99,88.57,.97,87.04,.97,78.18,.91,72.87,.86,73.69,.80,72.14,.48,87.11,.32,74.88,.21,58.79,.17,33.36,.23,28.08,.03,90.00
2016.10.28-06:00,.93,86.67,.95,91.83,.94,88.05,.99,77.10,.96,71.00,.89,72.34,.84,72.15,.46,85.09,.32,72.96,.23,61.20,.18,39.02,.25,30.69,.04,90.00
2016.10.28-07:00,.90,89.67,.94,95.23,.93,88.60,1.03,76.18,1.02,69.90,.94,71.28,.88,72.40,.45,81.28,.33,69.98,.25,62.42,.20,43.32,.27,33.34,.05,90.00
2016.10.28-08:00,.88,91.18,.95,98.07,.93,88.66,1.08,75.64,1.09,69.74,1.00,70.94,.92,72.98,.44,76.41,.34,66.29,.26,62.49,.21,46.03,.29,35.48,.06,90.00
2016.10.28-09:00,.88,90.65,.97,99.47,.95,88.13,1.12,75.65,1.14,70.57,1.04,71.53,.94,74.13,.45,72.13,.36,62.98,.27,61.69,.21,46.61,.30,36.28,.06,90.00
2016.10.28-10:00,.82,83.06,.97,99.17,.95,87.03,1.15,76.17,1.18,72.10,1.07,72.79,.95,75.85,.46,69.63,.38,61.08,.26,60.63,.20,44.85,.29,35.44,.06,90.00
2016.10.28-11:00,.79,72.28,.93,97.19,.95,85.43,1.16,76.90,1.18,73.74,1.07,74.22,.93,77.79,.48,68.67,.40,60.74,.24,59.75,.18,40.85,.28,33.35,.06,90.00
2016.10.28-12:00,.85,61.76,.89,93.66,.94,83.66,1.15,77.70,1.17,75.24,1.05,75.68,.90,79.76,.48,68.55,.42,61.67,.22,58.92,.15,34.51,.27,30.46,.05,90.00
2016.10.28-13:00,.97,54.30,.86,88.98,.94,82.19,1.14,78.60,1.15,76.60,1.03,77.22,.86,81.62,.47,68.58,.42,63.45,.19,57.97,.13,26.44,.25,27.40,.04,90.00
2016.10.28-14:00,1.11,52.68,.85,84.24,.96,81.50,1.13,79.50,1.13,77.75,1.00,78.73,.82,83.14,.46,68.51,.42,65.98,.17,57.17,.12,18.15,.23,24.55,.04,90.00
2016.10.28-15:00,1.21,57.46,.86,81.08,.98,82.02,1.13,80.49,1.13,78.78,.99,79.96,.78,83.89,.45,68.47,.41,69.41,.16,57.26,.12,12.37,.22,22.14,.03,90.00
2016.10.28-16:00,1.28,63.05,.87,79.94,.99,83.49,1.14,81.61,1.13,79.62,.98,80.55,.76,83.51,.46,68.41,.40,73.07,.16,58.44,.13,12.29,.22,21.46,.03,90.00
2016.10.28-17:00,1.28,69.40,.88,79.95,1.00,85.09,1.15,82.74,1.14,80.30,.98,80.49,.75,82.15,.48,68.06,.39,75.86,.17,59.66,.15,18.22,.23,23.93,.03,90.00
2016.10.28-18:00,1.29,74.87,.90,80.36,1.01,86.07,1.17,83.66,1.16,80.94,.99,80.07,.76,80.25,.50,67.41,.38,77.28,.20,60.01,.17,26.39,.25,28.59,.04,90.00
2016.10.28-19:00,1.33,80.12,.94,81.30,1.02,86.29,1.19,84.25,1.19,81.70,1.01,79.63,.78,78.27,.52,66.83,.36,77.23,.22,59.44,.20,33.16,.27,33.17,.04,90.00
2016.10.28-20:00,1.37,85.83,.99,82.88,1.04,86.05,1.21,84.55,1.20,82.58,1.04,79.25,.81,76.49,.56,66.55,.36,75.60,.24,58.46,.22,37.89,.30,36.65,.05,90.00
2016.10.28-21:00,1.44,90.68,1.03,84.69,1.06,85.68,1.21,84.71,1.19,83.48,1.04,79.05,.83,75.13,.59,66.78,.36,72.78,.25,57.40,.24,40.74,.31,38.62,.05,90.00
2016.10.28-22:00,1.49,94.98,1.06,86.01,1.07,85.38,1.19,84.87,1.17,84.29,1.03,79.14,.83,74.27,.62,67.84,.37,69.78,.25,56.12,.24,41.89,.31,39.08,.05,90.00
2016.10.28-23:00,1.46,98.24,1.07,86.37,1.08,85.10,1.17,84.91,1.12,84.77,1.01,79.40,.82,73.76,.63,69.96,.38,67.74,.25,54.57,.22,41.35,.30,38.03,.05,90.00
2016.10.28-24:00,1.41,100.52,1.06,85.89,1.08,84.82,1.14,84.70,1.07,84.68,.98,79.51,.80,73.27,.63,73.19,.39,67.18,.23,52.92,.20,39.06,.28,35.55,.04,90.00
2016.10.29-01:00,1.32,103.26,1.05,84.81,1.07,84.51,1.11,84.20,1.02,83.92,.94,79.23,.78,72.58,.61,77.15,.39,67.74,.21,51.47,.17,35.21,.25,32.13,.03,90.00
2016.10.29-02:00,1.23,106.67,1.05,83.51,1.07,84.25,1.09,83.61,.98,82.65,.90,78.43,.77,71.57,.58,81.16,.38,68.81,.20,50.91,.14,30.34,.23,28.46,.03,90.00
2016.10.29-03:00,1.12,111.74,1.05,82.58,1.07,84.30,1.08,83.20,.96,81.10,.88,77.16,.76,70.31,.54,84.47,.36,70.20,.19,52.31,.13,25.75,.21,25.12,.02,90.00
2016.10.29-04:00,.98,116.07,1.05,82.24,1.07,84.66,1.07,83.07,.96,79.54,.87,75.75,.78,69.32,.50,86.48,.35,71.58,.19,55.78,.12,23.83,.21,23.18,.02,90.00
2016.10.29-05:00,.85,119.72,1.03,82.35,1.06,85.18,1.07,83.16,.97,78.27,.88,74.68,.82,69.28,.48,86.66,.35,72.03,.19,59.84,.13,26.40,.22,24.05,.03,90.00
2016.10.29-06:00,.73,124.68,.99,82.64,1.03,85.57,1.07,83.09,.99,77.25,.91,73.94,.86,70.17,.45,84.68,.34,70.99,.21,62.97,.15,32.08,.23,27.46,.03,90.00
2016.10.29-07:00,.63,129.73,.94,83.27,1.01,85.95,1.07,82.68,1.03,76.39,.95,73.39,.92,71.64,.45,80.68,.35,68.62,.23,64.37,.17,37.65,.26,31.54,.04,90.00
2016.10.29-08:00,.54,130.66,.91,84.50,1.01,86.50,1.08,81.96,1.08,75.79,1.00,73.09,.97,73.38,.45,75.53,.36,65.85,.24,64.31,.19,41.37,.28,34.74,.05,90.00
2016.10.29-09:00,.51,128.16,.91,85.69,1.03,87.02,1.10,81.02,1.13,75.57,1.05,73.26,1.00,75.29,.47,70.65,.38,63.76,.25,63.44,.20,42.83,.29,36.27,.06,90.00
2016.10.29-10:00,.49,125.31,.92,85.79,1.04,86.93,1.12,79.72,1.16,75.63,1.08,73.88,1.01,77.29,.49,67.35,.40,63.03,.25,62.19,.20,42.16,.29,36.07,.06,90.00
2016.10.29-11:00,.46,121.10,.92,84.16,1.03,85.74,1.12,78.00,1.17,75.72,1.09,74.77,1.00,79.24,.52,66.09,.42,63.75,.23,60.90,.19,39.63,.29,34.47,.05,90.00
2016.10.29-12:00,.42,114.59,.92,81.04,1.02,83.72,1.12,76.40,1.17,76.01,1.08,76.00,.97,81.20,.53,66.64,.42,65.62,.21,59.29,.17,34.80,.27,31.67,.05,90.00
2016.10.29-13:00,.39,105.26,.91,76.83,1.00,81.34,1.12,75.33,1.15,76.53,1.06,77.52,.91,83.05,.53,68.44,.42,68.29,.18,57.20,.14,27.59,.25,28.18,.04,90.00
2016.10.29-14:00,.38,92.62,.90,72.15,.99,79.11,1.13,74.95,1.14,77.31,1.03,79.17,.86,84.48,.52,70.65,.41,71.35,.16,54.80,.13,19.06,.24,24.86,.03,90.00
2016.10.29-15:00,.40,81.34,.92,68.58,.99,77.73,1.14,75.47,1.14,78.56,1.01,80.84,.81,85.17,.50,72.39,.39,74.44,.14,52.88,.12,11.85,.22,22.41,.03,90.00
2016.10.29-16:00,.44,75.93,.94,66.95,.99,77.36,1.16,76.85,1.15,80.30,.99,82.43,.78,84.94,.48,73.12,.38,77.16,.15,52.42,.12,9.89,.22,21.85,.03,90.00
2016.10.29-17:00,.48,73.61,.96,66.50,1.00,77.50,1.18,78.80,1.16,82.42,.99,83.89,.77,84.14,.48,72.88,.36,78.72,.16,53.03,.13,14.74,.22,24.13,.03,90.00
2016.10.29-18:00,.49,72.08,.97,65.96,.99,77.37,1.19,80.74,1.18,84.50,.99,85.03,.78,83.18,.49,71.99,.35,78.54,.19,54.31,.15,23.77,.23,28.96,.03,90.00
2016.10.29-19:00,.51,71.53,.97,65.35,.99,76.75,1.20,82.25,1.19,86.18,.99,85.59,.80,82.16,.52,70.70,.34,76.28,.22,56.10,.18,32.41,.25,34.13,.04,90.00
2016.10.29-20:00,.56,72.88,1.00,65.71,1.00,76.10,1.21,83.34,1.19,87.45,1.00,85.70,.83,81.15,.55,69.44,.34,72.25,.25,58.03,.21,38.23,.28,37.66,.05,90.00
2016.10.29-21:00,.62,75.20,1.03,67.18,1.03,75.64,1.22,84.04,1.18,88.35,1.00,85.52,.84,80.16,.59,68.47,.35,67.27,.26,59.78,.23,41.68,.30,39.52,.05,90.00
2016.10.29-22:00,.68,77.31,1.07,69.28,1.05,75.34,1.21,84.28,1.16,88.86,.99,85.08,.85,79.13,.63,68.09,.37,62.61,.27,60.83,.24,43.52,.31,40.19,.05,90.00
2016.10.29-23:00,.74,79.32,1.10,71.52,1.07,75.18,1.19,83.97,1.11,88.88,.96,84.26,.84,78.02,.65,68.84,.40,59.73,.26,60.83,.23,43.85,.31,39.70,.05,90.00
2016.10.29-24:00,.77,80.65,1.11,73.53,1.07,75.04,1.15,83.07,1.05,88.16,.92,82.87,.81,76.83,.65,71.22,.42,59.41,.24,59.69,.21,42.50,.29,37.81,.04,90.00
2016.10.30-01:00,.79,80.33,1.10,74.94,1.06,74.75,1.11,81.75,.99,86.56,.88,80.90,.78,75.65,.64,75.30,.43,61.37,.21,57.58,.18,39.19,.26,34.32,.04,90.00
2016.10.30-02:00,.81,78.80,1.10,75.78,1.06,74.34,1.09,80.40,.93,84.16,.84,78.54,.76,74.44,.61,80.32,.43,64.52,.19,55.26,.14,33.70,.23,29.29,.03,90.00
2016.10.30-03:00,.82,77.39,1.09,76.33,1.06,73.95,1.07,79.43,.90,81.31,.83,76.21,.74,73.15,.56,84.95,.41,67.78,.18,54.31,.12,26.81,.20,23.66,.02,90.00
2016.10.30-04:00,.81,77.32,1.06,76.94,1.05,73.77,1.06,79.09,.89,78.60,.83,74.55,.74,72.05,.51,87.96,.39,70.56,.17,56.01,.10,21.20,.19,19.36,.02,90.00
2016.10.30-05:00,.78,78.54,1.02,77.63,1.03,73.87,1.05,79.35,.90,76.60,.86,74.01,.77,71.68,.46,88.32,.38,72.49,.17,59.79,.10,20.59,.20,18.53,.02,90.00
2016.10.30-06:00,.73,79.63,.96,78.15,1.01,74.09,1.05,80.00,.92,75.44,.89,74.50,.81,72.26,.43,85.63,.37,73.27,.18,63.69,.11,24.92,.22,21.33,.03,90.00
2016.10.30-07:00,.68,78.73,.89,78.11,.99,74.09,1.04,80.50,.95,74.71,.93,75.38,.86,73.42,.43,80.67,.37,72.98,.19,66.00,.14,30.85,.24,26.17,.03,90.00
2016.10.30-08:00,.63,76.75,.84,77.84,.97,73.97,1.03,80.55,.99,74.09,.96,76.26,.90,74.84,.44,75.13,.38,71.97,.21,66.05,.16,35.40,.27,31.04,.05,90.00
2016.10.30-09:00,.61,75.72,.80,77.99,.96,74.06,1.02,79.97,1.02,73.54,.99,77.08,.94,76.31,.47,70.47,.39,70.83,.22,64.23,.18,37.74,.29,34.75,.05,90.00
2016.10.30-10:00,.59,75.86,.79,78.41,.97,74.16,1.02,78.50,1.06,73.01,1.01,77.81,.96,77.62,.51,67.24,.40,69.92,.22,61.43,.19,38.27,.30,37.00,.06,90.00
2016.10.30-11:00,.56,75.74,.79,78.22,.97,73.75,1.02,76.09,1.08,72.49,1.01,78.50,.95,78.79,.54,65.66,.40,69.61,.22,58.49,.19,37.16,.29,37.59,.06,90.00
2016.10.30-12:00,.54,73.08,.78,76.70,.97,72.59,1.01,73.10,1.08,72.10,.99,79.26,.93,79.96,.56,65.77,.40,70.01,.20,55.71,.18,34.25,.27,36.38,.05,90.00
2016.10.30-13:00,.54,68.70,.77,73.80,.96,70.91,1.00,70.18,1.08,72.08,.95,80.16,.89,81.25,.56,67.46,.39,71.13,.18,53.07,.15,29.10,.25,33.39,.04,90.00
2016.10.30-14:00,.55,64.05,.77,69.84,.96,69.08,1.01,67.87,1.07,72.48,.92,81.05,.84,82.50,.55,70.21,.37,72.74,.16,50.68,.13,21.98,.22,29.23,.03,90.00
2016.10.30-15:00,.57,60.39,.78,65.84,.95,67.73,1.02,66.61,1.06,73.44,.88,81.69,.80,83.25,.52,72.88,.35,74.03,.15,48.88,.11,14.86,.20,25.25,.02,90.00
2016.10.30-16:00,.58,58.94,.79,63.08,.95,67.51,1.04,66.69,1.06,75.06,.86,81.89,.77,83.09,.50,74.42,.33,74.53,.14,48.81,.11,11.39,.19,22.89,.02,90.00
2016.10.30-17:00,.56,58.31,.79,61.92,.94,68.34,1.06,67.92,1.07,77.12,.86,81.50,.76,81.91,.49,74.51,.32,74.25,.15,51.03,.11,14.22,.19,22.93,.02,90.00
2016.10.30-18:00,.58,57.04,.78,61.42,.92,69.54,1.08,69.87,1.08,79.38,.87,80.68,.77,80.27,.49,73.59,.32,73.20,.18,54.33,.13,21.77,.20,25.30,.02,90.00
2016.10.30-19:00,.59,55.62,.77,60.28,.91,70.32,1.10,72.05,1.10,81.54,.89,79.66,.80,78.76,.51,72.19,.33,71.21,.21,57.51,.15,30.14,.22,29.05,.03,90.00
2016.10.30-20:00,.59,53.97,.79,59.18,.90,70.64,1.12,74.21,1.11,83.42,.92,78.59,.84,77.65,.54,70.63,.34,68.29,.24,59.85,.19,36.59,.25,32.67,.03,90.00
2016.10.30-21:00,.62,54.31,.83,59.52,.92,70.94,1.14,76.19,1.12,84.79,.95,77.49,.87,76.83,.57,69.06,.36,64.74,.26,61.37,.22,40.99,.29,35.59,.04,90.00
2016.10.30-22:00,.67,57.77,.88,61.94,.93,71.60,1.15,77.82,1.11,85.44,.97,76.31,.88,76.08,.60,67.58,.38,60.95,.27,62.07,.24,43.82,.31,37.71,.05,90.00
2016.10.30-23:00,.72,63.15,.92,65.60,.94,72.38,1.13,78.81,1.07,85.17,.97,75.10,.89,75.38,.63,66.69,.40,57.96,.27,61.98,.24,45.25,.32,38.77,.05,90.00
2016.10.30-24:00,.75,68.43,.94,69.02,.93,72.54,1.08,78.73,1.00,83.74,.95,73.87,.87,74.84,.65,67.24,.43,57.17,.25,61.22,.22,45.10,.31,38.29,.05,90.00
2016.10.31-01:00,.75,72.71,.93,71.52,.90,71.86,1.02,77.50,.93,81.11,.93,72.81,.85,74.69,.66,69.79,.46,59.13,.23,59.84,.19,42.65,.28,35.65,.04,90.00
2016.10.31-02:00,.75,76.06,.90,73.00,.88,70.72,.98,75.46,.88,77.59,.91,72.17,.83,74.93,.65,73.89,.47,62.89,.20,58.18,.15,37.12,.25,30.92,.03,90.00
2016.10.31-03:00,.75,79.00,.87,74.35,.88,69.99,.95,73.36,.86,74.03,.91,72.12,.81,75.18,.62,78.29,.46,66.94,.18,56.85,.12,28.35,.22,25.35,.02,90.00
2016.10.31-04:00,.74,82.61,.85,76.52,.88,70.50,.95,72.18,.86,71.56,.91,72.78,.79,75.07,.57,81.72,.43,70.31,.16,56.66,.10,18.53,.20,21.12,.02,90.00
2016.10.31-05:00,.71,86.81,.81,79.30,.89,72.24,.96,72.19,.89,70.50,.93,73.93,.79,74.58,.52,83.34,.40,72.71,.15,58.04,.09,13.08,.20,20.08,.02,90.00
2016.10.31-06:00,.66,91.35,.76,82.13,.89,74.90,.97,73.22,.92,70.55,.95,75.37,.80,74.15,.47,82.79,.38,74.23,.16,60.30,.10,14.95,.21,22.38,.02,90.00
2016.10.31-07:00,.60,95.85,.70,84.13,.88,77.95,.98,74.64,.95,71.06,.97,76.81,.83,74.10,.46,80.26,.37,74.90,.17,62.01,.12,21.16,.23,26.71,.03,90.00
2016.10.31-08:00,.53,99.97,.64,84.84,.86,81.11,.97,75.90,.97,71.59,.99,78.00,.86,74.42,.46,76.79,.37,74.78,.19,62.16,.15,27.18,.26,31.23,.04,90.00
2016.10.31-09:00,.48,104.15,.61,84.75,.84,84.23,.97,76.67,1.00,71.99,1.00,78.80,.90,74.83,.49,73.46,.38,73.90,.21,60.76,.18,31.60,.28,35.04,.05,90.00
2016.10.31-10:00,.45,102.52,.59,84.93,.82,87.06,.97,76.79,1.03,72.22,1.01,79.21,.92,75.11,.52,70.81,.39,72.41,.22,58.18,.20,34.43,.29,37.78,.05,90.00
2016.10.31-11:00,.45,107.47,.60,85.89,.80,89.13,.98,76.27,1.06,72.29,1.01,79.36,.94,75.41,.55,69.28,.39,70.83,.22,54.86,.21,35.68,.29,39.19,.05,90.00
2016.10.31-12:00,.45,110.90,.60,86.70,.77,89.75,.97,75.05,1.07,72.04,.99,79.26,.94,75.84,.57,68.99,.39,69.59,.21,51.38,.20,35.63,.28,39.20,.05,90.00
2016.10.31-13:00,.44,111.22,.59,85.95,.72,88.61,.95,73.39,1.06,71.70,.96,79.11,.92,76.56,.57,70.00,.38,69.12,.20,48.08,.18,33.57,.25,37.12,.04,90.00
2016.10.31-14:00,.44,105.90,.57,83.15,.69,85.91,.95,71.81,1.05,71.70,.92,78.97,.89,77.49,.56,71.93,.37,69.26,.18,45.47,.16,29.65,.22,32.98,.03,90.00
2016.10.31-15:00,.44,98.39,.55,80.59,.66,82.80,.95,70.94,1.06,72.42,.89,78.82,.86,78.38,.53,74.02,.36,69.42,.17,44.12,.13,24.34,.19,27.37,.02,90.00
2016.10.31-16:00,.44,95.19,.54,78.87,.65,80.73,.97,71.18,1.07,73.93,.87,78.52,.84,78.83,.50,75.27,.34,69.14,.16,44.90,.11,19.31,.18,21.80,.01,90.00
2016.10.31-17:00,.41,92.87,.52,77.46,.64,80.08,.99,72.49,1.09,76.02,.88,77.98,.83,78.59,.48,75.11,.34,68.77,.17,48.61,.11,18.17,.18,18.77,.01,90.00
2016.10.31-18:00,.38,89.88,.49,75.16,.63,80.26,1.01,74.74,1.11,78.60,.89,77.51,.84,78.05,.47,73.68,.34,68.61,.19,53.88,.11,22.04,.19,19.23,.01,90.00
2016.10.31-19:00,.36,85.44,.49,71.12,.63,80.21,1.03,77.53,1.13,81.38,.92,77.23,.87,77.65,.48,71.40,.35,68.35,.21,58.70,.13,28.71,.22,22.70,.02,90.00
2016.10.31-20:00,.37,80.11,.52,67.07,.65,79.49,1.05,80.27,1.14,83.83,.95,76.83,.90,77.32,.51,68.69,.36,67.50,.24,61.98,.17,34.88,.25,27.50,.03,90.00
2016.10.31-21:00,.41,77.64,.58,65.99,.68,78.85,1.07,82.59,1.15,85.65,.97,76.05,.93,76.84,.55,66.00,.38,65.93,.27,63.94,.20,39.26,.29,32.11,.04,90.00
2016.10.31-22:00,.48,79.12,.66,68.25,.72,78.88,1.07,84.29,1.13,86.69,.99,74.83,.94,76.09,.59,63.83,.40,63.97,.28,65.06,.22,41.92,.32,35.80,.05,90.00
2016.10.31-23:00,.55,83.36,.72,72.39,.75,79.43,1.05,85.12,1.10,86.77,1.01,73.27,.95,75.18,.64,62.59,.42,61.96,.27,65.14,.24,43.05,.33,38.39,.05,90.00
2016.10.31-24:00,.60,87.84,.77,77.07,.76,80.16,1.01,84.91,1.04,85.68,1.01,71.63,.95,74.43,.68,62.97,.44,60.96,.25,63.75,.23,42.76,.33,39.89,.05,90.00
2016.11.01-01:00,.63,92.86,.79,81.10,.76,80.62,.96,83.54,.98,83.29,1.01,70.23,.93,74.12,.71,65.52,.46,62.15,.22,60.42,.21,40.52,.30,39.80,.05,90.00
2016.11.01-02:00,.63,98.62,.78,84.11,.74,80.53,.92,81.18,.93,79.78,1.01,69.40,.91,74.33,.72,69.98,.47,65.43,.20,55.44,.17,35.48,.26,37.31,.04,90.00
2016.11.01-03:00,.61,105.01,.75,86.37,.72,79.84,.89,78.41,.90,75.93,1.01,69.41,.88,74.89,.71,75.30,.46,69.35,.17,50.43,.14,27.66,.22,32.31,.03,90.00
2016.11.01-04:00,.59,112.32,.70,88.30,.71,79.05,.88,76.32,.91,72.93,1.02,70.38,.86,75.50,.66,80.33,.43,72.42,.16,47.15,.12,19.10,.20,26.30,.02,90.00
2016.11.01-05:00,.59,119.93,.63,90.75,.70,78.73,.89,75.61,.93,71.37,1.04,71.97,.85,75.84,.60,84.18,.39,74.12,.15,46.57,.11,14.07,.18,22.11,.01,90.00
2016.11.01-06:00,.58,127.00,.55,94.44,.70,79.37,.90,76.28,.96,71.11,1.05,73.82,.85,75.87,.54,85.94,.35,74.56,.15,48.55,.11,14.60,.19,21.08,.01,90.00
2016.11.01-07:00,.55,134.57,.48,97.56,.69,80.89,.91,77.80,.98,71.68,1.07,75.77,.86,75.92,.50,85.01,.34,73.95,.17,51.98,.12,19.16,.20,22.70,.02,90.00
2016.11.01-08:00,.50,140.79,.41,98.05,.68,82.43,.90,79.24,1.01,72.39,1.08,77.49,.88,76.02,.48,81.69,.34,72.36,.19,55.17,.14,24.85,.23,25.79,.03,90.00
2016.11.01-09:00,.42,143.37,.35,94.15,.67,83.57,.90,80.05,1.04,73.00,1.10,78.93,.91,76.07,.49,77.37,.35,70.05,.21,56.86,.17,29.76,.26,29.36,.04,90.00
2016.11.01-10:00,.34,140.99,.32,86.89,.67,84.48,.91,79.94,1.07,73.43,1.11,80.07,.94,75.95,.51,73.33,.37,67.38,.22,56.50,.19,33.38,.28,32.87,.04,90.00
2016.11.01-11:00,.27,131.87,.31,79.02,.67,85.10,.91,78.72,1.10,73.57,1.11,80.88,.95,75.60,.54,70.30,.39,64.98,.23,54.17,.20,35.50,.28,35.85,.05,90.00
2016.11.01-12:00,.23,114.79,.31,71.80,.66,84.99,.90,76.29,1.11,73.33,1.09,81.31,.95,75.14,.56,68.76,.40,63.61,.22,50.59,.20,35.99,.28,37.90,.05,90.00
2016.11.01-13:00,.23,93.07,.32,65.28,.65,83.95,.90,73.03,1.11,72.94,1.05,81.48,.94,74.86,.58,68.84,.42,63.63,.21,46.47,.18,34.16,.25,38.29,.04,90.00
2016.11.01-14:00,.28,77.38,.36,60.05,.63,81.95,.90,69.70,1.11,72.82,1.00,81.52,.92,74.96,.58,70.38,.42,65.24,.20,42.68,.15,29.08,.22,36.01,.03,90.00
2016.11.01-15:00,.32,68.65,.40,55.91,.61,79.10,.92,67.08,1.11,73.17,.96,81.31,.89,75.27,.57,72.69,.42,68.14,.19,40.44,.13,21.10,.19,30.72,.02,90.00